Time,TemperatureF,DewpointF,PressureIn,WindDirection,WindDirectionDegrees,WindSpeedMPH,WindSpeedGustMPH,Humidity,HourlyPrecipIn,Conditions,Clouds,dailyrainin,SoftwareType,DateUTC
2013-09-27 00:00:00,61.2,19.8,29.76,NNW,327,9.0,14.0,20,0.00,CLR,,0.00,WeatherDisplay:10.37,2013-09-27 07:00:00,
2013-09-27 00:10:00,61.0,20.7,29.76,NW,319,9.0,12.0,21,0.00,CLR,,0.00,WeatherDisplay:10.37,2013-09-27 07:10:00,
2013-09-27 00:15:00,61.2,20.9,29.76,NW,322,9.0,17.0,21,0.00,CLR,,0.00,WeatherDisplay:10.37,2013-09-27 07:15:00,
2013-09-27 00:20:00,61.2,20.9,29.76,NNW,329,10.0,17.0,21,0.00,CLR,,0.00,WeatherDisplay:10.37,2013-09-27 07:20:00,
2013-09-27 00:30:00,61.2,20.9,29.77,NNW,331,9.0,17.0,21,0.00,CLR,,0.00,WeatherDisplay:10.37,2013-09-27 07:30:00,
2013-09-27 00:40:00,60.9,20.7,29.77,NW,326,8.0,17.0,21,0.00,CLR,,0.00,WeatherDisplay:10.37,2013-09-27 07:40:00,
2013-09-27 00:50:00,60.6,21.5,29.78,NW,323,10.0,18.0,22,0.00,CLR,,0.00,WeatherDisplay:10.37,2013-09-27 07:50:00,
2013-09-27 01:00:00,60.4,21.3,29.78,NNW,335,12.0,17.0,22,0.00,CLR,,0.00,WeatherDisplay:10.37,2013-09-27 08:00:00,
2013-09-27 01:05:00,60.3,22.3,29.78,NNW,336,8.0,18.0,23,0.00,CLR,,0.00,WeatherDisplay:10.37,2013-09-27 08:05:00,
2013-09-27 01:10:00,60.1,22.1,29.78,NNW,327,10.0,21.0,23,0.00,CLR,,0.00,WeatherDisplay:10.37,2013-09-27 08:10:00,
2013-09-27 01:20:00,60.1,22.1,29.78,NNW,328,14.0,28.0,23,0.00,CLR,,0.00,WeatherDisplay:10.37,2013-09-27 08:20:00,
2013-09-27 01:30:00,60.1,23.1,29.78,NNW,332,12.0,24.0,24,0.00,CLR,,0.00,WeatherDisplay:10.37,2013-09-27 08:30:00,
2013-09-27 01:40:00,59.6,22.7,29.79,NNW,329,14.0,20.0,24,0.00,CLR,,0.00,WeatherDisplay:10.37,2013-09-27 08:40:00,
2013-09-27 01:50:00,59.5,22.6,29.80,NNW,333,10.0,20.0,24,0.00,CLR,,0.00,WeatherDisplay:10.37,2013-09-27 08:50:00,
2013-09-27 02:00:00,59.2,23.4,29.81,NNW,328,10.0,20.0,25,0.00,CLR,,0.00,WeatherDisplay:10.37,2013-09-27 09:00:00,
2013-09-27 02:10:00,58.9,23.1,29.80,NNW,330,12.0,20.0,25,0.00,CLR,,0.00,WeatherDisplay:10.37,2013-09-27 09:10:00,
2013-09-27 02:20:00,58.9,23.1,29.80,NNW,340,15.0,23.0,25,0.00,CLR,,0.00,WeatherDisplay:10.37,2013-09-27 09:20:00,
2013-09-27 02:30:00,58.7,22.9,29.80,NW,326,12.0,20.0,25,0.00,CLR,,0.00,WeatherDisplay:10.37,2013-09-27 09:30:00,
2013-09-27 02:40:00,58.4,22.7,29.80,NNW,327,10.0,20.0,25,0.00,CLR,,0.00,WeatherDisplay:10.37,2013-09-27 09:40:00,
2013-09-27 02:50:00,58.6,22.8,29.80,NW,325,13.0,20.0,25,0.00,CLR,,0.00,WeatherDisplay:10.37,2013-09-27 09:50:00,
2013-09-27 03:00:00,58.4,22.7,29.81,NNW,340,14.0,22.0,25,0.00,CLR,,0.00,WeatherDisplay:10.37,2013-09-27 10:00:00,
2013-09-27 03:10:00,58.3,22.6,29.81,NNW,327,13.0,20.0,25,0.00,CLR,,0.00,WeatherDisplay:10.37,2013-09-27 10:10:00,
2013-09-27 03:20:00,58.3,22.6,29.81,NNW,330,13.0,21.0,25,0.00,CLR,,0.00,WeatherDisplay:10.37,2013-09-27 10:20:00,
2013-09-27 03:30:00,58.0,22.3,29.81,NW,322,13.0,20.0,25,0.00,CLR,,0.00,WeatherDisplay:10.37,2013-09-27 10:30:00,
2013-09-27 03:40:00,58.1,22.4,29.81,NNW,330,14.0,20.0,25,0.00,CLR,,0.00,WeatherDisplay:10.37,2013-09-27 10:40:00,
2013-09-27 03:50:00,57.8,23.1,29.81,NNW,332,14.0,21.0,26,0.00,CLR,,0.00,WeatherDisplay:10.37,2013-09-27 10:50:00,
2013-09-27 04:00:00,57.6,23.0,29.82,NNW,334,10.0,22.0,26,0.00,CLR,,0.00,WeatherDisplay:10.37,2013-09-27 11:00:00,
2013-09-27 04:10:00,57.5,22.8,29.82,NNW,329,12.0,18.0,26,0.00,CLR,,0.00,WeatherDisplay:10.37,2013-09-27 11:10:00,
2013-09-27 04:15:00,57.3,22.7,29.82,NNW,333,12.0,20.0,26,0.00,CLR,,0.00,WeatherDisplay:10.37,2013-09-27 11:15:00,
2013-09-27 04:20:00,57.3,22.6,29.83,NNW,333,9.0,18.0,26,0.00,CLR,,0.00,WeatherDisplay:10.37,2013-09-27 11:20:00,
2013-09-27 04:30:00,57.2,23.5,29.83,NW,317,12.0,18.0,27,0.00,CLR,,0.00,WeatherDisplay:10.37,2013-09-27 11:30:00,
2013-09-27 04:40:00,57.0,23.3,29.83,NNW,328,12.0,20.0,27,0.00,CLR,,0.00,WeatherDisplay:10.37,2013-09-27 11:40:00,
2013-09-27 04:50:00,56.9,23.2,29.83,NNW,336,10.0,20.0,27,0.00,CLR,,0.00,WeatherDisplay:10.37,2013-09-27 11:50:00,
2013-09-27 05:00:00,56.8,23.1,29.83,NNW,333,13.0,20.0,27,0.00,CLR,,0.00,WeatherDisplay:10.37,2013-09-27 12:00:00,
2013-09-27 05:10:00,56.7,23.0,29.84,NNW,328,8.0,16.0,27,0.00,CLR,,0.00,WeatherDisplay:10.37,2013-09-27 12:10:00,
2013-09-27 05:15:00,56.7,23.0,29.84,NNW,329,8.0,18.0,27,0.00,CLR,,0.00,WeatherDisplay:10.37,2013-09-27 12:15:00,
2013-09-27 05:20:00,56.5,22.9,29.84,NNW,332,6.0,15.0,27,0.00,CLR,,0.00,WeatherDisplay:10.37,2013-09-27 12:20:00,
2013-09-27 05:30:00,56.3,22.7,29.86,NNW,337,8.0,15.0,27,0.00,CLR,,0.00,WeatherDisplay:10.37,2013-09-27 12:30:00,
2013-09-27 05:40:00,56.0,23.3,29.86,NW,321,7.0,12.0,28,0.00,CLR,,0.00,WeatherDisplay:10.37,2013-09-27 12:40:00,
2013-09-27 05:50:00,55.9,23.2,29.87,NNW,332,5.0,12.0,28,0.00,CLR,,0.00,WeatherDisplay:10.37,2013-09-27 12:50:00,
2013-09-27 06:00:00,55.4,21.9,29.87,NNW,332,6.0,12.0,27,0.00,CLR,,0.00,WeatherDisplay:10.37,2013-09-27 13:00:00,
2013-09-27 06:15:00,55.3,22.7,29.87,NW,324,6.0,12.0,28,0.00,CLR,,0.00,WeatherDisplay:10.37,2013-09-27 13:15:00,
2013-09-27 06:20:00,55.3,22.7,29.88,NW,325,5.0,13.0,28,0.00,CLR,,0.00,WeatherDisplay:10.37,2013-09-27 13:20:00,
2013-09-27 06:30:00,55.6,23.0,29.89,NNW,332,12.0,17.0,28,0.00,CLR,,0.00,WeatherDisplay:10.37,2013-09-27 13:30:00,
2013-09-27 06:40:00,55.3,22.7,29.89,NNW,327,7.0,16.0,28,0.00,CLR,,0.00,WeatherDisplay:10.37,2013-09-27 13:40:00,
2013-09-27 06:50:00,55.0,22.5,29.90,NNW,338,6.0,12.0,28,0.00,CLR,,0.00,WeatherDisplay:10.37,2013-09-27 13:50:00,
2013-09-27 07:00:00,55.6,23.0,29.90,NNW,332,8.0,15.0,28,0.00,CLR,,0.00,WeatherDisplay:10.37,2013-09-27 14:00:00,
2013-09-27 07:10:00,55.4,22.8,29.90,NNW,330,6.0,10.0,28,0.00,CLR,,0.00,WeatherDisplay:10.37,2013-09-27 14:10:00,
2013-09-27 07:15:00,55.4,22.8,29.91,NNW,327,5.0,10.0,28,0.00,CLR,,0.00,WeatherDisplay:10.37,2013-09-27 14:15:00,
2013-09-27 07:20:00,55.4,22.8,29.91,NNW,328,5.0,13.0,28,0.00,CLR,,0.00,WeatherDisplay:10.37,2013-09-27 14:20:00,
2013-09-27 07:30:00,55.8,23.2,29.91,NW,320,8.0,14.0,28,0.00,CLR,,0.00,WeatherDisplay:10.37,2013-09-27 14:30:00,
2013-09-27 07:40:00,56.5,23.7,29.92,NW,325,8.0,14.0,28,0.00,CLR,,0.00,WeatherDisplay:10.37,2013-09-27 14:40:00,
2013-09-27 07:50:00,57.0,23.3,29.92,NNW,331,7.0,14.0,27,0.00,CLR,,0.00,WeatherDisplay:10.37,2013-09-27 14:50:00,
2013-09-27 08:00:00,57.5,23.8,29.92,NNW,331,8.0,16.0,27,0.00,CLR,,0.00,WeatherDisplay:10.37,2013-09-27 15:00:00,
2013-09-27 08:10:00,58.0,24.2,29.92,NNW,333,9.0,18.0,27,0.00,CLR,,0.00,WeatherDisplay:10.37,2013-09-27 15:10:00,
2013-09-27 08:15:00,58.3,24.4,29.92,NNW,337,8.0,16.0,27,0.00,CLR,,0.00,WeatherDisplay:10.37,2013-09-27 15:15:00,
2013-09-27 08:20:00,58.5,23.7,29.93,NNW,334,10.0,15.0,26,0.00,CLR,,0.00,WeatherDisplay:10.37,2013-09-27 15:20:00,
2013-09-27 08:30:00,59.1,24.2,29.93,NW,326,8.0,16.0,26,0.00,CLR,,0.00,WeatherDisplay:10.37,2013-09-27 15:30:00,
2013-09-27 08:40:00,60.1,24.1,29.93,NW,325,8.0,12.0,25,0.00,CLR,,0.00,WeatherDisplay:10.37,2013-09-27 15:40:00,
2013-09-27 08:50:00,60.2,25.1,29.93,NNW,327,13.0,18.0,26,0.00,CLR,,0.00,WeatherDisplay:10.37,2013-09-27 15:50:00,
2013-09-27 09:00:00,60.8,23.7,29.93,NW,323,12.0,17.0,24,0.00,CLR,,0.00,WeatherDisplay:10.37,2013-09-27 16:00:00,
2013-09-27 09:10:00,61.2,23.1,29.93,NW,324,12.0,20.0,23,0.00,CLR,,0.00,WeatherDisplay:10.37,2013-09-27 16:10:00,
2013-09-27 09:20:00,62.0,23.7,29.93,NNW,340,8.0,20.0,23,0.00,CLR,,0.00,WeatherDisplay:10.37,2013-09-27 16:20:00,
2013-09-27 09:30:00,62.6,23.2,29.94,NNW,329,10.0,17.0,22,0.00,CLR,,0.00,WeatherDisplay:10.37,2013-09-27 16:30:00,
2013-09-27 09:40:00,63.3,22.6,29.94,NNW,339,8.0,17.0,21,0.00,CLR,,0.00,WeatherDisplay:10.37,2013-09-27 16:40:00,
2013-09-27 09:50:00,64.0,22.1,29.94,NNW,344,8.0,16.0,20,0.00,CLR,,0.00,WeatherDisplay:10.37,2013-09-27 16:50:00,
2013-09-27 10:00:00,64.5,21.3,29.94,NNW,333,12.0,18.0,19,0.00,CLR,,0.00,WeatherDisplay:10.37,2013-09-27 17:00:00,
2013-09-27 10:10:00,64.5,22.5,29.94,NW,324,13.0,22.0,20,0.00,CLR,,0.00,WeatherDisplay:10.37,2013-09-27 17:10:00,
2013-09-27 10:15:00,64.8,21.5,29.94,NW,324,12.0,17.0,19,0.00,CLR,,0.00,WeatherDisplay:10.37,2013-09-27 17:15:00,
2013-09-27 10:20:00,65.2,21.9,29.94,NNW,331,9.0,15.0,19,0.00,CLR,,0.00,WeatherDisplay:10.37,2013-09-27 17:20:00,
2013-09-27 10:30:00,65.6,22.2,29.93,NW,325,9.0,14.0,19,0.00,CLR,,0.00,WeatherDisplay:10.37,2013-09-27 17:30:00,
2013-09-27 10:40:00,65.6,22.2,29.93,NNW,336,7.0,20.0,19,0.00,CLR,,0.00,WeatherDisplay:10.37,2013-09-27 17:40:00,
2013-09-27 10:50:00,66.6,21.7,29.93,NNW,339,6.0,15.0,18,0.00,CLR,,0.00,WeatherDisplay:10.37,2013-09-27 17:50:00,
2013-09-27 11:00:00,66.8,21.9,29.93,NW,319,10.0,18.0,18,0.00,CLR,,0.00,WeatherDisplay:10.37,2013-09-27 18:00:00,
2013-09-27 11:10:00,67.5,21.1,29.92,NNW,340,5.0,13.0,17,0.00,CLR,,0.00,WeatherDisplay:10.37,2013-09-27 18:10:00,
2013-09-27 11:20:00,67.3,21.0,29.92,NW,314,7.0,12.0,17,0.00,CLR,,0.00,WeatherDisplay:10.37,2013-09-27 18:20:00,
2013-09-27 11:30:00,68.2,21.7,29.92,NNW,333,6.0,12.0,17,0.00,CLR,,0.00,WeatherDisplay:10.37,2013-09-27 18:30:00,
2013-09-27 11:40:00,68.9,22.2,29.91,NNW,338,7.0,13.0,17,0.00,CLR,,0.00,WeatherDisplay:10.37,2013-09-27 18:40:00,
2013-09-27 11:50:00,69.3,21.1,29.91,NW,324,7.0,13.0,16,0.00,CLR,,0.00,WeatherDisplay:10.37,2013-09-27 18:50:00,
2013-09-27 12:00:00,69.3,21.1,29.91,NW,311,7.0,13.0,16,0.00,CLR,,0.00,WeatherDisplay:10.37,2013-09-27 19:00:00,
2013-09-27 12:10:00,69.5,19.8,29.91,NNW,347,6.0,12.0,15,0.00,CLR,,0.00,WeatherDisplay:10.37,2013-09-27 19:10:00,
2013-09-27 12:20:00,70.7,20.8,29.90,North,350,6.0,10.0,15,0.00,CLR,,0.00,WeatherDisplay:10.37,2013-09-27 19:20:00,
2013-09-27 12:30:00,70.8,20.8,29.91,NNW,344,1.0,8.0,15,0.00,CLR,,0.00,WeatherDisplay:10.37,2013-09-27 19:30:00,
2013-09-27 12:40:00,71.5,19.8,29.90,NNW,347,3.0,10.0,14,0.00,CLR,,0.00,WeatherDisplay:10.37,2013-09-27 19:40:00,
2013-09-27 12:50:00,71.1,19.4,29.90,North,351,5.0,12.0,14,0.00,CLR,,0.00,WeatherDisplay:10.37,2013-09-27 19:50:00,
2013-09-27 13:00:00,72.1,18.5,29.89,NE,52,1.0,6.0,13,0.00,CLR,,0.00,WeatherDisplay:10.37,2013-09-27 20:00:00,
2013-09-27 13:10:00,74.0,18.1,29.88,East,82,3.0,6.0,12,0.00,CLR,,0.00,WeatherDisplay:10.37,2013-09-27 20:10:00,
2013-09-27 13:20:00,74.2,18.3,29.88,East,94,1.0,4.0,12,0.00,CLR,,0.00,WeatherDisplay:10.37,2013-09-27 20:20:00,
2013-09-27 13:30:00,73.7,19.8,29.88,ESE,108,3.0,7.0,13,0.00,CLR,,0.00,WeatherDisplay:10.37,2013-09-27 20:30:00,
2013-09-27 13:40:00,73.4,19.5,29.87,East,88,1.0,10.0,13,0.00,CLR,,0.00,WeatherDisplay:10.37,2013-09-27 20:40:00,
2013-09-27 13:50:00,74.3,20.2,29.87,SE,134,1.0,6.0,13,0.00,CLR,,0.00,WeatherDisplay:10.37,2013-09-27 20:50:00,
2013-09-27 14:00:00,74.2,20.1,29.86,ESE,115,2.0,10.0,13,0.00,CLR,,0.00,WeatherDisplay:10.37,2013-09-27 21:00:00,
2013-09-27 14:10:00,73.2,19.3,29.86,ENE,70,0.0,6.0,13,0.00,CLR,,0.00,WeatherDisplay:10.37,2013-09-27 21:10:00,
2013-09-27 14:15:00,74.1,20.0,29.86,East,87,2.0,6.0,13,0.00,CLR,,0.00,WeatherDisplay:10.37,2013-09-27 21:15:00,
2013-09-27 14:20:00,74.4,18.4,29.85,SE,125,0.0,7.0,12,0.00,CLR,,0.00,WeatherDisplay:10.37,2013-09-27 21:20:00,
2013-09-27 14:30:00,74.6,18.6,29.85,SSE,154,2.0,6.0,12,0.00,CLR,,0.00,WeatherDisplay:10.37,2013-09-27 21:30:00,
2013-09-27 14:40:00,74.9,18.8,29.85,ESE,123,2.0,7.0,12,0.00,CLR,,0.00,WeatherDisplay:10.37,2013-09-27 21:40:00,
2013-09-27 14:50:00,74.2,18.3,29.85,ESE,116,3.0,6.0,12,0.00,CLR,,0.00,WeatherDisplay:10.37,2013-09-27 21:50:00,
2013-09-27 15:00:00,75.4,17.2,29.85,ESE,110,2.0,5.0,11,0.00,CLR,,0.00,WeatherDisplay:10.37,2013-09-27 22:00:00,
2013-09-27 15:10:00,74.7,18.7,29.85,ESE,112,2.0,6.0,12,0.00,CLR,,0.00,WeatherDisplay:10.37,2013-09-27 22:10:00,
2013-09-27 15:20:00,75.3,19.1,29.85,ESE,117,1.0,3.0,12,0.00,CLR,,0.00,WeatherDisplay:10.37,2013-09-27 22:20:00,
2013-09-27 15:30:00,76.2,19.9,29.85,SE,126,3.0,9.0,12,0.00,CLR,,0.00,WeatherDisplay:10.37,2013-09-27 22:30:00,
2013-09-27 15:40:00,76.3,17.9,29.85,SE,140,0.0,1.0,11,0.00,CLR,,0.00,WeatherDisplay:10.37,2013-09-27 22:40:00,
2013-09-27 15:50:00,76.3,17.8,29.85,ESE,106,2.0,9.0,11,0.00,CLR,,0.00,WeatherDisplay:10.37,2013-09-27 22:50:00,
2013-09-27 16:00:00,75.6,17.3,29.85,ENE,74,3.0,5.0,11,0.00,CLR,,0.00,WeatherDisplay:10.37,2013-09-27 23:00:00,
2013-09-27 16:10:00,75.4,17.2,29.85,East,79,2.0,6.0,11,0.00,CLR,,0.00,WeatherDisplay:10.37,2013-09-27 23:10:00,
2013-09-27 16:20:00,75.3,19.1,29.84,East,79,0.0,5.0,12,0.00,CLR,,0.00,WeatherDisplay:10.37,2013-09-27 23:20:00,
2013-09-27 16:25:00,76.0,17.6,29.84,East,79,0.0,2.0,11,0.00,CLR,,0.00,WeatherDisplay:10.37,2013-09-27 23:25:00,
2013-09-27 16:30:00,76.6,18.1,29.84,East,79,0.0,2.0,11,0.00,CLR,,0.00,WeatherDisplay:10.37,2013-09-27 23:30:00,
2013-09-27 16:40:00,77.0,18.4,29.84,East,79,0.0,4.0,11,0.00,CLR,,0.00,WeatherDisplay:10.37,2013-09-27 23:40:00,
2013-09-27 16:50:00,76.0,17.6,29.84,East,79,0.0,0.0,11,0.00,CLR,,0.00,WeatherDisplay:10.37,2013-09-27 23:50:00,
2013-09-27 17:00:00,77.0,18.4,29.84,East,80,1.0,6.0,11,0.00,CLR,,0.00,WeatherDisplay:10.37,2013-09-28 00:00:00,
2013-09-27 17:10:00,76.3,17.9,29.84,East,82,1.0,5.0,11,0.00,CLR,,0.00,WeatherDisplay:10.37,2013-09-28 00:10:00,
2013-09-27 17:20:00,76.0,19.7,29.85,East,82,1.0,3.0,12,0.00,CLR,,0.00,WeatherDisplay:10.37,2013-09-28 00:20:00,
2013-09-27 17:30:00,76.1,17.7,29.85,East,82,0.0,4.0,11,0.00,CLR,,0.00,WeatherDisplay:10.37,2013-09-28 00:30:00,
2013-09-27 17:40:00,75.8,17.5,29.85,East,82,0.0,0.0,11,0.00,CLR,,0.00,WeatherDisplay:10.37,2013-09-28 00:40:00,
2013-09-27 17:50:00,76.1,19.7,29.85,East,82,1.0,3.0,12,0.00,CLR,,0.00,WeatherDisplay:10.37,2013-09-28 00:50:00,
2013-09-27 18:00:00,75.6,17.3,29.85,East,82,0.0,0.0,11,0.00,CLR,,0.00,WeatherDisplay:10.37,2013-09-28 01:00:00,
2013-09-27 18:10:00,74.9,18.8,29.86,East,82,1.0,4.0,12,0.00,CLR,,0.00,WeatherDisplay:10.37,2013-09-28 01:10:00,
2013-09-27 18:15:00,74.4,20.3,29.86,East,82,0.0,2.0,13,0.00,CLR,,0.00,WeatherDisplay:10.37,2013-09-28 01:15:00,
2013-09-27 18:20:00,74.2,20.1,29.86,East,82,0.0,0.0,13,0.00,CLR,,0.00,WeatherDisplay:10.37,2013-09-28 01:20:00,
2013-09-27 18:30:00,72.9,20.9,29.86,East,82,0.0,2.0,14,0.00,CLR,,0.00,WeatherDisplay:10.37,2013-09-28 01:30:00,
2013-09-27 18:40:00,71.6,21.4,29.86,East,82,0.0,0.0,15,0.00,CLR,,0.00,WeatherDisplay:10.37,2013-09-28 01:40:00,
2013-09-27 18:50:00,70.2,20.3,29.87,East,82,0.0,0.0,15,0.00,CLR,,0.00,WeatherDisplay:10.37,2013-09-28 01:50:00,
2013-09-27 19:00:00,69.1,21.0,29.87,East,82,0.0,0.0,16,0.00,CLR,,0.00,WeatherDisplay:10.37,2013-09-28 02:00:00,
2013-09-27 19:10:00,68.0,18.6,29.87,East,82,0.0,0.0,15,0.00,CLR,,0.00,WeatherDisplay:10.37,2013-09-28 02:10:00,
2013-09-27 19:15:00,67.4,19.6,29.88,East,82,0.0,0.0,16,0.00,CLR,,0.00,WeatherDisplay:10.37,2013-09-28 02:15:00,
2013-09-27 19:20:00,66.9,19.2,29.89,East,82,0.0,0.0,16,0.00,CLR,,0.00,WeatherDisplay:10.37,2013-09-28 02:20:00,
2013-09-27 19:30:00,65.8,18.3,29.89,East,82,0.0,0.0,16,0.00,CLR,,0.00,WeatherDisplay:10.37,2013-09-28 02:30:00,
2013-09-27 19:40:00,64.7,20.2,29.89,East,82,0.0,0.0,18,0.00,CLR,,0.00,WeatherDisplay:10.37,2013-09-28 02:40:00,
2013-09-27 19:50:00,63.4,19.1,29.90,East,82,0.0,0.0,18,0.00,CLR,,0.00,WeatherDisplay:10.37,2013-09-28 02:50:00,
2013-09-27 20:00:00,61.6,13.4,29.91,East,82,2.0,4.0,15,0.00,CLR,,0.00,WeatherDisplay:10.37,2013-09-28 03:00:00,
2013-09-27 20:10:00,61.1,15.9,29.92,East,86,0.0,3.0,17,0.00,CLR,,0.00,WeatherDisplay:10.37,2013-09-28 03:10:00,
2013-09-27 20:15:00,61.8,15.0,29.92,East,86,2.0,3.0,16,0.00,CLR,,0.00,WeatherDisplay:10.37,2013-09-28 03:15:00,
2013-09-27 20:20:00,61.6,14.9,29.92,East,86,2.0,3.0,16,0.00,CLR,,0.00,WeatherDisplay:10.37,2013-09-28 03:20:00,
2013-09-27 20:30:00,60.7,14.2,29.91,East,88,2.0,4.0,16,0.00,CLR,,0.00,WeatherDisplay:10.37,2013-09-28 03:30:00,
2013-09-27 20:40:00,59.5,13.2,29.92,East,93,3.0,5.0,16,0.00,CLR,,0.00,WeatherDisplay:10.37,2013-09-28 03:40:00,
2013-09-27 20:50:00,58.7,13.9,29.92,East,95,0.0,0.0,17,0.00,CLR,,0.00,WeatherDisplay:10.37,2013-09-28 03:50:00,
2013-09-27 21:00:00,58.4,13.7,29.93,East,95,0.0,0.0,17,0.00,CLR,,0.00,WeatherDisplay:10.37,2013-09-28 04:00:00,
2013-09-27 21:05:00,58.1,14.8,29.93,East,95,0.0,0.0,18,0.00,CLR,,0.00,WeatherDisplay:10.37,2013-09-28 04:05:00,
2013-09-27 21:10:00,58.0,15.9,29.93,East,95,0.0,0.0,19,0.00,CLR,,0.00,WeatherDisplay:10.37,2013-09-28 04:10:00,
2013-09-27 21:15:00,58.0,15.9,29.93,East,95,0.0,0.0,19,0.00,CLR,,0.00,WeatherDisplay:10.37,2013-09-28 04:15:00,
2013-09-27 21:20:00,58.0,17.1,29.94,East,95,0.0,3.0,20,0.00,CLR,,0.00,WeatherDisplay:10.37,2013-09-28 04:20:00,
2013-09-27 21:30:00,57.6,16.8,29.93,East,95,0.0,4.0,20,0.00,CLR,,0.00,WeatherDisplay:10.37,2013-09-28 04:30:00,
2013-09-27 21:40:00,58.3,17.3,29.93,East,98,1.0,5.0,20,0.00,CLR,,0.00,WeatherDisplay:10.37,2013-09-28 04:40:00,
2013-09-27 21:50:00,59.0,16.7,29.94,ESE,110,1.0,7.0,19,0.00,CLR,,0.00,WeatherDisplay:10.37,2013-09-28 04:50:00,
2013-09-27 22:00:00,58.7,16.5,29.94,ESE,117,3.0,5.0,19,0.00,CLR,,0.00,WeatherDisplay:10.37,2013-09-28 05:00:00,
2013-09-27 22:10:00,58.5,16.3,29.94,ESE,118,1.0,6.0,19,0.00,CLR,,0.00,WeatherDisplay:10.37,2013-09-28 05:10:00,
2013-09-27 22:20:00,58.0,17.1,29.94,ESE,118,0.0,0.0,20,0.00,CLR,,0.00,WeatherDisplay:10.37,2013-09-28 05:20:00,
2013-09-27 22:30:00,57.9,17.0,29.94,ESE,119,2.0,6.0,20,0.00,CLR,,0.00,WeatherDisplay:10.37,2013-09-28 05:30:00,
2013-09-27 22:40:00,57.2,16.4,29.94,ESE,119,0.0,4.0,20,0.00,CLR,,0.00,WeatherDisplay:10.37,2013-09-28 05:40:00,
2013-09-27 22:50:00,56.7,16.0,29.94,ESE,119,1.0,4.0,20,0.00,CLR,,0.00,WeatherDisplay:10.37,2013-09-28 05:50:00,
2013-09-27 23:00:00,56.7,16.0,29.94,ESE,119,2.0,6.0,20,0.00,CLR,,0.00,WeatherDisplay:10.37,2013-09-28 06:00:00,
2013-09-27 23:10:00,57.0,16.3,29.94,ESE,121,2.0,5.0,20,0.00,CLR,,0.00,WeatherDisplay:10.37,2013-09-28 06:10:00,
2013-09-27 23:25:00,56.3,15.7,29.95,ESE,122,2.0,5.0,20,0.00,CLR,,0.00,WeatherDisplay:10.37,2013-09-28 06:25:00,
2013-09-27 23:30:00,56.2,15.6,29.94,SE,126,2.0,7.0,20,0.00,CLR,,0.00,WeatherDisplay:10.37,2013-09-28 06:30:00,
2013-09-27 23:40:00,55.9,16.5,29.93,SE,138,2.0,6.0,21,0.00,CLR,,0.00,WeatherDisplay:10.37,2013-09-28 06:40:00,
2013-09-27 23:50:00,55.9,16.5,29.93,SE,139,2.0,4.0,21,0.00,CLR,,0.00,WeatherDisplay:10.37,2013-09-28 06:50:00,